Weather History for PABA - March, 2013

Change the Weather History Date:

Friday, March 29, 2013

  Actual Average Record
Temperature  
Mean Temperature -8 °F -  
Max Temperature -8 °F 0 °F 12 °F (2007)
Min Temperature -15 °F -14 °F -35 °F (1999)
Degree Days  
Heating Degree Days 72    
Moisture  
Dew Point -12 °F    
Average Humidity 80    
Maximum Humidity 83    
Minimum Humidity 75    
Precipitation  
Precipitation 0.00 in - - ()
Sea Level Pressure  
Sea Level Pressure 30.15 in    
Wind  
Wind Speed 8 mph (East)    
Max Wind Speed 12 mph    
Max Gust Speed -    
Visibility 10 miles    
Events      
Averages and records for this station are not official NWS values.
T = Trace of Precipitation, MM = Missing Value Source: NWS Daily Summary

Daily Weather History Graph

Daily Weather History Graph

Search for Another Location

Airport or City:

Trip Planner

Search our weather history database for the weather conditions in past years. The results will help you decide how hot, cold, wet, or windy it might be!

Date:

Astronomy

Mar. 29, 2013 Rise Set
Actual Time 6:48 AM AKDT 8:31 PM AKDT
Civil Twilight 5:43 AM AKDT 9:37 PM AKDT
Nautical Twilight 4:12 AM AKDT 11:11 PM AKDT
Astronomical Twilight 2:11 AM AKDT 1:06 AM AKDT
Moon 12:13 AM AKDT (3/29) 6:11 AM AKDT (3/29)
Length of Visible Light 15h 53m
Length of Day
13h 42m
Waning Gibbous, 92% of the Moon is Illuminated
Mar 29
Waning Gibbous
Apr 2
Last Quarter
Apr 10
New
Apr 18
First Quarter
Apr 25
Full

Hourly Weather History & Observations

Time (AKDT) Temp. Windchill Dew Point Humidity Pressure Visibility Wind Dir Wind Speed Gust Speed Precip Events Conditions
12:01 AM -11.9 °F -27.3 °F -16.1 °F 82% 30.18 in 10.0 mi East 6.9 mph - N/A   Unknown
1:01 AM -11.9 °F -29.9 °F -16.1 °F 82% 30.18 in 10.0 mi East 9.2 mph - N/A   Unknown
2:01 AM -13.0 °F -30.0 °F -18.0 °F 78% 30.17 in 10.0 mi East 8.1 mph - N/A   Unknown
3:01 AM -14.1 °F -29.9 °F -18.0 °F 82% 30.17 in 10.0 mi East 6.9 mph - N/A   Unknown
4:01 AM -15.0 °F -33.7 °F -18.9 °F 82% 30.16 in 10.0 mi East 9.2 mph - N/A   Unknown
5:01 AM -13.0 °F - -17.0 °F 82% 30.16 in 10.0 mi North - - N/A   Unknown
6:01 AM -14.1 °F -32.6 °F -18.0 °F 82% 30.16 in 10.0 mi East 9.2 mph - N/A   Unknown
7:01 AM -14.1 °F -32.6 °F -18.9 °F 79% 30.16 in 10.0 mi ESE 9.2 mph - N/A   Unknown
8:01 AM -11.9 °F - -16.1 °F 82% 30.16 in 10.0 mi North - - N/A   Unknown
9:01 AM -14.1 °F -29.9 °F -18.0 °F 82% 30.16 in 9.0 mi East 6.9 mph - N/A   Unknown
10:01 AM -9.0 °F -26.4 °F -13.0 °F 83% 30.16 in 10.0 mi East 9.2 mph - N/A   Unknown
11:01 AM -7.1 °F - -11.0 °F 83% 30.15 in 10.0 mi North - - N/A   Unknown
12:01 PM -4.0 °F -21.2 °F -9.0 °F 79% 30.16 in 10.0 mi ENE 10.4 mph - N/A   Unknown
1:01 PM -2.0 °F -18.7 °F -7.1 °F 79% 30.15 in 10.0 mi ENE 10.4 mph - N/A   Unknown
2:01 PM -0.9 °F -18.3 °F -7.1 °F 75% 30.15 in 10.0 mi ENE 11.5 mph - N/A   Unknown
3:01 PM -0.9 °F -18.3 °F -7.1 °F 75% 30.15 in 10.0 mi East 11.5 mph - N/A   Unknown
4:01 PM -0.0 °F -17.1 °F -6.0 °F 76% 30.14 in 9.0 mi East 11.5 mph - N/A   Unknown
5:01 PM -0.0 °F -15.3 °F -6.0 °F 76% 30.14 in 10.0 mi East 9.2 mph - N/A   Unknown
6:01 PM -0.0 °F -15.3 °F -6.0 °F 76% 30.14 in 10.0 mi ENE 9.2 mph - N/A   Unknown
7:01 PM -2.0 °F -15.4 °F -7.1 °F 79% 30.14 in 10.0 mi ESE 6.9 mph - N/A   Unknown
8:01 PM -2.9 °F -11.2 °F -8.0 °F 79% 30.14 in 10.0 mi ENE 3.5 mph - N/A   Unknown
9:01 PM -6.0 °F -23.6 °F -11.0 °F 79% 30.13 in 10.0 mi East 10.4 mph - N/A   Unknown
10:01 PM -8.0 °F - -11.9 °F 83% 30.14 in 10.0 mi Calm Calm - N/A   Unknown
11:01 PM -9.0 °F -20.4 °F -13.0 °F 83% 30.14 in 10.0 mi ENE 4.6 mph - N/A   Unknown